| time (UTC) | temp F | wind direction | speed MPH | gust MPH | rain 1hr in | rain 24hr in | rain mn in | humidity % | barometer mb |
| 20260509074912 | 46 | 162 | 2.0 | 6.0 | 0.00 | 0.00 | 0.00 | 64 | 1000.9 |
| 20260509074413 | 46 | 154 | 3.0 | 6.0 | 0.00 | 0.00 | 0.00 | 63 | 1001.0 |
| 20260509073412 | 45 | 151 | 4.0 | 7.0 | 0.00 | 0.00 | 0.00 | 63 | 1001.1 |
| 20260509072913 | 45 | 153 | 3.0 | 6.0 | 0.00 | 0.00 | 0.00 | 63 | 1001.3 |
| 20260509072413 | 46 | 149 | 2.0 | 3.0 | 0.00 | 0.00 | 0.00 | 63 | 1001.4 |
| 20260509071911 | 46 | 152 | 3.0 | 5.0 | 0.00 | 0.00 | 0.00 | 62 | 1001.6 |
| 20260509071413 | 46 | 158 | 4.0 | 6.0 | 0.00 | 0.00 | 0.00 | 62 | 1001.6 |
| 20260509070913 | 46 | 154 | 3.0 | 5.0 | 0.00 | 0.00 | 0.00 | 61 | 1001.6 |
| 20260509070413 | 46 | 137 | 3.0 | 6.0 | 0.00 | 0.00 | 0.00 | 61 | 1001.7 |
| 20260509065413 | 46 | 160 | 3.0 | 7.0 | 0.00 | 0.00 | 0.00 | 62 | 1001.9 |
| 20260509064911 | 46 | 157 | 4.0 | 8.0 | 0.00 | 0.00 | 0.00 | 61 | 1002.0 |
| 20260509063911 | 46 | 161 | 4.0 | 7.0 | 0.00 | 0.00 | 0.00 | 61 | 1002.2 |
| 20260509063415 | 46 | 153 | 3.0 | 8.0 | 0.00 | 0.00 | 0.00 | 61 | 1002.3 |
| 20260509062913 | 46 | 147 | 4.0 | 7.0 | 0.00 | 0.00 | 0.00 | 61 | 1002.4 |
| 20260509062413 | 46 | 151 | 3.0 | 8.0 | 0.00 | 0.00 | 0.00 | 61 | 1002.4 |
| 20260509061413 | 46 | 161 | 6.0 | 10.0 | 0.00 | 0.00 | 0.00 | 61 | 1002.6 |
| 20260509060912 | 46 | 149 | 3.0 | 7.0 | 0.00 | 0.00 | 0.00 | 62 | 1002.8 |
| 20260509060413 | 46 | 149 | 3.0 | 6.0 | 0.00 | 0.00 | 0.00 | 62 | 1002.8 |
| 20260509054912 | 46 | 148 | 3.0 | 6.0 | 0.00 | 0.00 | 0.00 | 61 | 1003.2 |
| 20260509054413 | 46 | 147 | 3.0 | 5.0 | 0.00 | 0.00 | 0.00 | 62 | 1003.3 |
| 20260509053912 | 46 | 142 | 5.0 | 7.0 | 0.00 | 0.00 | 0.00 | 62 | 1003.4 |
| 20260509053413 | 46 | 150 | 3.0 | 7.0 | 0.00 | 0.00 | 0.00 | 63 | 1003.5 |
| 20260509052913 | 46 | 133 | 3.0 | 6.0 | 0.00 | 0.00 | 0.00 | 62 | 1003.6 |
| 20260509052413 | 46 | 119 | 3.0 | 5.0 | 0.00 | 0.00 | 0.00 | 64 | 1003.7 |
| 20260509051911 | 46 | 104 | 3.0 | 7.0 | 0.00 | 0.00 | 0.00 | 63 | 1003.9 |
| 20260509051411 | 46 | 131 | 4.0 | 8.0 | 0.00 | 0.00 | 0.00 | 62 | 1003.9 |
| 20260509050913 | 47 | 122 | 2.0 | 5.0 | 0.00 | 0.00 | 0.00 | 63 | 1004.0 |
| 20260509050414 | 47 | 122 | 2.0 | 3.0 | 0.00 | 0.00 | 0.00 | 61 | 1004.1 |
| 20260509045911 | 47 | 103 | 2.0 | 6.0 | 0.00 | 0.00 | 0.00 | 59 | 1004.3 |
| 20260509045413 | 47 | 130 | 2.0 | 3.0 | 0.00 | 0.00 | 0.00 | 59 | 1004.3 |
| 20260509044913 | 47 | 76 | 2.0 | 3.0 | 0.00 | 0.00 | 0.00 | 58 | 1004.3 |
| 20260509044411 | 47 | 97 | 1.0 | 3.0 | 0.00 | 0.00 | 0.00 | 58 | 1004.4 |
| 20260509043913 | 47 | 105 | 3.0 | 7.0 | 0.00 | 0.00 | 0.00 | 58 | 1004.4 |
| 20260509043411 | 47 | 117 | 2.0 | 3.0 | 0.00 | 0.00 | 0.00 | 58 | 1004.5 |
| 20260509042911 | 47 | 138 | 2.0 | 5.0 | 0.00 | 0.00 | 0.00 | 57 | 1004.5 |
| 20260509042413 | 47 | 142 | 2.0 | 6.0 | 0.00 | 0.00 | 0.00 | 58 | 1004.5 |
| 20260509041911 | 47 | 149 | 2.0 | 7.0 | 0.00 | 0.00 | 0.00 | 58 | 1004.6 |
| 20260509041413 | 47 | 153 | 2.0 | 7.0 | 0.00 | 0.00 | 0.00 | 58 | 1004.5 |
| 20260509040912 | 47 | 132 | 2.0 | 8.0 | 0.00 | 0.00 | 0.00 | 58 | 1004.7 |
| 20260509040412 | 47 | 141 | 2.0 | 6.0 | 0.00 | 0.00 | 0.00 | 58 | 1004.8 |
| 20260509035913 | 47 | 182 | 2.0 | 5.0 | 0.00 | 0.00 | 0.00 | 57 | 1004.8 |
| 20260509034913 | 47 | 144 | 3.0 | 6.0 | 0.00 | 0.00 | 0.00 | 57 | 1004.9 |
| 20260509034414 | 47 | 156 | 3.0 | 8.0 | 0.00 | 0.00 | 0.00 | 57 | 1004.9 |
| 20260509033912 | 47 | 157 | 3.0 | 7.0 | 0.00 | 0.00 | 0.00 | 57 | 1004.9 |
| 20260509032913 | 47 | 137 | 3.0 | 7.0 | 0.00 | 0.00 | 0.00 | 57 | 1004.9 |
| 20260509031912 | 47 | 126 | 3.0 | 9.0 | 0.00 | 0.00 | 0.00 | 57 | 1005.1 |
| 20260509031413 | 47 | 160 | 5.0 | 9.0 | 0.00 | 0.00 | 0.00 | 57 | 1005.1 |
| 20260509030913 | 47 | 166 | 5.0 | 10.0 | 0.00 | 0.00 | 0.00 | 56 | 1005.1 |
| 20260509030412 | 47 | 154 | 4.0 | 9.0 | 0.00 | 0.00 | 0.00 | 56 | 1005.1 |
| 20260509025911 | 47 | 158 | 4.0 | 12.0 | 0.00 | 0.00 | 0.00 | 57 | 1005.2 |
| 20260509024911 | 47 | 157 | 4.0 | 7.0 | 0.00 | 0.00 | 0.00 | 57 | 1005.3 |
| 20260509024411 | 47 | 135 | 4.0 | 9.0 | 0.00 | 0.00 | 0.00 | 56 | 1005.4 |
| 20260509023913 | 47 | 151 | 4.0 | 7.0 | 0.00 | 0.00 | 0.00 | 56 | 1005.4 |
| 20260509023412 | 47 | 149 | 4.0 | 9.0 | 0.00 | 0.00 | 0.00 | 57 | 1005.4 |
| 20260509022913 | 46 | 149 | 5.0 | 8.0 | 0.00 | 0.00 | 0.00 | 57 | 1005.4 |
| 20260509022411 | 46 | 156 | 5.0 | 9.0 | 0.00 | 0.00 | 0.00 | 57 | 1005.5 |
| 20260509021913 | 46 | 137 | 3.0 | 7.0 | 0.00 | 0.00 | 0.00 | 58 | 1005.5 |
| 20260509021411 | 46 | 152 | 5.0 | 13.0 | 0.00 | 0.00 | 0.00 | 58 | 1005.5 |
| 20260509020911 | 46 | 145 | 5.0 | 10.0 | 0.00 | 0.00 | 0.00 | 58 | 1005.5 |
| 20260509015913 | 45 | 158 | 3.0 | 9.0 | 0.00 | 0.00 | 0.00 | 58 | 1005.6 |
| 20260509015411 | 45 | 178 | 4.0 | 7.0 | 0.00 | 0.00 | 0.00 | 59 | 1005.6 |
| 20260509014413 | 45 | 152 | 3.0 | 7.0 | 0.00 | 0.00 | 0.00 | 60 | 1005.6 |
| 20260509013911 | 45 | 156 | 3.0 | 6.0 | 0.00 | 0.00 | 0.00 | 60 | 1005.5 |
| 20260509013413 | 45 | 149 | 3.0 | 5.0 | 0.00 | 0.00 | 0.00 | 61 | 1005.6 |
| 20260509012913 | 45 | 133 | 3.0 | 5.0 | 0.00 | 0.00 | 0.00 | 61 | 1005.5 |
| 20260509010913 | 46 | 144 | 2.0 | 6.0 | 0.00 | 0.00 | 0.00 | 66 | 1005.4 |
| 20260509010412 | 46 | 154 | 2.0 | 3.0 | 0.00 | 0.00 | 0.00 | 66 | 1005.4 |
| 20260509005913 | 46 | 83 | 2.0 | 3.0 | 0.00 | 0.00 | 0.00 | 67 | 1005.4 |
| 20260509005413 | 46 | 151 | 1.0 | 3.0 | 0.00 | 0.00 | 0.00 | 66 | 1005.4 |
| 20260509004913 | 46 | 111 | 2.0 | 5.0 | 0.00 | 0.00 | 0.00 | 67 | 1005.4 |
| 20260509004412 | 47 | 118 | 2.0 | 3.0 | 0.00 | 0.00 | 0.00 | 66 | 1005.4 |
| 20260509003912 | 47 | 138 | 2.0 | 3.0 | 0.00 | 0.00 | 0.00 | 65 | 1005.5 |
| 20260509003411 | 47 | 140 | 2.0 | 3.0 | 0.00 | 0.00 | 0.00 | 66 | 1005.5 |
| 20260509002913 | 48 | 124 | 1.0 | 3.0 | 0.00 | 0.00 | 0.00 | 66 | 1005.5 |
| 20260509002413 | 48 | 96 | 2.0 | 6.0 | 0.00 | 0.00 | 0.00 | 66 | 1005.5 |
| 20260509001411 | 50 | 73 | 3.0 | 6.0 | 0.00 | 0.00 | 0.00 | 65 | 1005.5 |
| 20260509000913 | 50 | 52 | 2.0 | 3.0 | 0.00 | 0.00 | 0.00 | 58 | 1005.4 |
| 20260509000413 | 51 | 77 | 2.0 | 3.0 | 0.00 | 0.00 | 0.00 | 56 | 1005.5 |
| 20260508235913 | 51 | 68 | 2.0 | 3.0 | 0.00 | 0.00 | 0.00 | 55 | 1005.5 |
| 20260508235412 | 51 | 98 | 2.0 | 3.0 | 0.00 | 0.00 | 0.00 | 56 | 1005.4 |
| 20260508234413 | 51 | 67 | 1.0 | 3.0 | 0.00 | 0.00 | 0.00 | 58 | 1005.6 |
| 20260508233912 | 51 | 51 | 2.0 | 3.0 | 0.00 | 0.00 | 0.00 | 58 | 1005.5 |
| 20260508233412 | 51 | 72 | 2.0 | 3.0 | 0.00 | 0.00 | 0.00 | 56 | 1005.5 |
| 20260508232911 | 51 | 95 | 2.0 | 3.0 | 0.00 | 0.00 | 0.00 | 57 | 1005.6 |
| 20260508232412 | 51 | 84 | 1.0 | 3.0 | 0.00 | 0.00 | 0.00 | 55 | 1005.6 |
| 20260508231911 | 51 | 83 | 2.0 | 7.0 | 0.00 | 0.00 | 0.00 | 54 | 1005.6 |
| 20260508230912 | 51 | 59 | 2.0 | 8.0 | 0.00 | 0.00 | 0.00 | 53 | 1005.7 |
| 20260508225911 | 50 | 65 | 1.0 | 3.0 | 0.00 | 0.00 | 0.00 | 54 | 1005.8 |
| 20260508225412 | 50 | 95 | 3.0 | 5.0 | 0.00 | 0.00 | 0.00 | 55 | 1005.8 |
| 20260508224913 | 50 | 85 | 3.0 | 6.0 | 0.00 | 0.00 | 0.00 | 56 | 1005.8 |
| 20260508224413 | 50 | 74 | 2.0 | 5.0 | 0.00 | 0.00 | 0.00 | 54 | 1005.9 |
| 20260508223913 | 50 | 60 | 3.0 | 5.0 | 0.00 | 0.00 | 0.00 | 57 | 1005.9 |
| 20260508223412 | 50 | 77 | 1.0 | 5.0 | 0.00 | 0.00 | 0.00 | 56 | 1005.9 |
| 20260508222911 | 50 | 81 | 3.0 | 7.0 | 0.00 | 0.00 | 0.00 | 57 | 1006.1 |
| 20260508222413 | 49 | 77 | 3.0 | 7.0 | 0.00 | 0.00 | 0.00 | 55 | 1006.1 |
| 20260508221911 | 50 | 59 | 3.0 | 7.0 | 0.00 | 0.00 | 0.00 | 57 | 1006.1 |
| 20260508220412 | 50 | 38 | 3.0 | 5.0 | 0.00 | 0.00 | 0.00 | 54 | 1006.2 |
| 20260508215912 | 50 | 38 | 3.0 | 5.0 | 0.00 | 0.00 | 0.00 | 52 | 1006.2 |
| 20260508215413 | 50 | 36 | 4.0 | 7.0 | 0.00 | 0.00 | 0.00 | 53 | 1006.2 |
| 20260508214413 | 50 | 60 | 4.0 | 8.0 | 0.00 | 0.00 | 0.00 | 55 | 1006.3 |
| 20260508213912 | 50 | 66 | 3.0 | 7.0 | 0.00 | 0.00 | 0.00 | 54 | 1006.3 |
| 20260508213413 | 50 | 45 | 3.0 | 5.0 | 0.00 | 0.00 | 0.00 | 53 | 1006.3 |
| 20260508212911 | 50 | 33 | 3.0 | 6.0 | 0.00 | 0.00 | 0.00 | 55 | 1006.4 |
| 20260508212412 | 50 | 80 | 2.0 | 6.0 | 0.00 | 0.00 | 0.00 | 58 | 1006.3 |
| 20260508211413 | 50 | 37 | 3.0 | 10.0 | 0.00 | 0.00 | 0.00 | 54 | 1006.4 |
| 20260508210911 | 50 | 81 | 3.0 | 7.0 | 0.00 | 0.00 | 0.00 | 55 | 1006.5 |
| 20260508210413 | 50 | 54 | 4.0 | 7.0 | 0.00 | 0.00 | 0.00 | 55 | 1006.5 |
| 20260508205913 | 50 | 61 | 4.0 | 6.0 | 0.00 | 0.00 | 0.00 | 54 | 1006.6 |
| 20260508205413 | 49 | 45 | 4.0 | 7.0 | 0.00 | 0.00 | 0.00 | 56 | 1006.6 |
| 20260508204915 | 50 | 66 | 5.0 | 7.0 | 0.00 | 0.00 | 0.00 | 56 | 1006.6 |
| 20260508204410 | 50 | 65 | 4.0 | 8.0 | 0.00 | 0.00 | 0.00 | 58 | 1006.7 |
| 20260508203911 | 50 | 49 | 5.0 | 7.0 | 0.00 | 0.00 | 0.00 | 56 | 1006.6 |
| 20260508203412 | 50 | 67 | 5.0 | 8.0 | 0.00 | 0.00 | 0.00 | 57 | 1006.7 |
| 20260508202914 | 50 | 50 | 3.0 | 7.0 | 0.00 | 0.00 | 0.00 | 56 | 1006.7 |
| 20260508202413 | 50 | 51 | 5.0 | 8.0 | 0.00 | 0.00 | 0.00 | 56 | 1006.8 |
| 20260508201910 | 50 | 87 | 3.0 | 10.0 | 0.00 | 0.00 | 0.00 | 55 | 1006.8 |
| 20260508201411 | 50 | 65 | 4.0 | 9.0 | 0.00 | 0.00 | 0.00 | 58 | 1006.8 |
| 20260508200913 | 49 | 50 | 3.0 | 7.0 | 0.00 | 0.00 | 0.00 | 59 | 1007.0 |
| 20260508200411 | 49 | 54 | 4.0 | 7.0 | 0.00 | 0.00 | 0.00 | 58 | 1007.1 |
| 20260508195911 | 49 | 83 | 5.0 | 8.0 | 0.00 | 0.00 | 0.00 | 61 | 1007.0 |
| 20260508195413 | 49 | 71 | 5.0 | 10.0 | 0.00 | 0.00 | 0.00 | 64 | 1007.1 |
| 20260508194412 | 49 | 66 | 6.0 | 10.0 | 0.00 | 0.00 | 0.00 | 61 | 1007.1 |
| 20260508193913 | 49 | 61 | 5.0 | 9.0 | 0.00 | 0.00 | 0.00 | 63 | 1007.2 |
| 20260508193412 | 49 | 55 | 5.0 | 8.0 | 0.00 | 0.00 | 0.00 | 63 | 1007.3 |
| 20260508192913 | 48 | 108 | 4.0 | 10.0 | 0.00 | 0.00 | 0.00 | 64 | 1007.3 |
| 20260508192411 | 48 | 87 | 6.0 | 10.0 | 0.00 | 0.00 | 0.00 | 66 | 1007.4 |
| 20260508191411 | 48 | 62 | 5.0 | 8.0 | 0.00 | 0.00 | 0.00 | 67 | 1007.4 |
| 20260508190911 | 48 | 66 | 6.0 | 12.0 | 0.00 | 0.00 | 0.00 | 67 | 1007.5 |
| 20260508190413 | 48 | 85 | 5.0 | 12.0 | 0.00 | 0.00 | 0.00 | 68 | 1007.5 |
| 20260508185430 | 48 | 61 | 6.0 | 12.0 | 0.00 | 0.00 | 0.00 | 69 | 1007.5 |
| 20260508184912 | 48 | 74 | 3.0 | 9.0 | 0.00 | 0.00 | 0.00 | 69 | 1007.6 |
| 20260508183911 | 48 | 91 | 4.0 | 9.0 | 0.00 | 0.00 | 0.00 | 69 | 1007.7 |
| 20260508183414 | 48 | 61 | 5.0 | 8.0 | 0.00 | 0.00 | 0.00 | 67 | 1007.6 |
| 20260508182912 | 48 | 52 | 6.0 | 10.0 | 0.00 | 0.00 | 0.00 | 67 | 1007.6 |
| 20260508182413 | 47 | 73 | 5.0 | 9.0 | 0.00 | 0.00 | 0.00 | 68 | 1007.7 |
| 20260508181914 | 47 | 61 | 4.0 | 12.0 | 0.00 | 0.00 | 0.00 | 67 | 1007.7 |
| 20260508181411 | 47 | 48 | 5.0 | 10.0 | 0.00 | 0.00 | 0.00 | 68 | 1007.9 |
| 20260508180913 | 47 | 66 | 4.0 | 9.0 | 0.00 | 0.00 | 0.00 | 67 | 1007.9 |
| 20260508180413 | 47 | 70 | 3.0 | 8.0 | 0.00 | 0.00 | 0.00 | 69 | 1007.9 |
| 20260508175913 | 46 | 50 | 6.0 | 12.0 | 0.00 | 0.00 | 0.00 | 69 | 1007.9 |
| 20260508175412 | 47 | 54 | 5.0 | 8.0 | 0.00 | 0.00 | 0.00 | 67 | 1008.0 |
| 20260508174913 | 47 | 59 | 5.0 | 9.0 | 0.00 | 0.00 | 0.00 | 68 | 1008.1 |
| 20260508174412 | 46 | 81 | 3.0 | 7.0 | 0.00 | 0.00 | 0.00 | 69 | 1008.2 |
| 20260508173913 | 47 | 58 | 6.0 | 9.0 | 0.00 | 0.00 | 0.00 | 68 | 1008.2 |
| 20260508173413 | 47 | 54 | 5.0 | 9.0 | 0.00 | 0.00 | 0.00 | 71 | 1008.2 |
| 20260508172912 | 47 | 46 | 5.0 | 8.0 | 0.00 | 0.00 | 0.00 | 70 | 1008.4 |
| 20260508172412 | 46 | 53 | 4.0 | 7.0 | 0.00 | 0.00 | 0.00 | 72 | 1008.4 |
| 20260508171412 | 45 | 54 | 6.0 | 9.0 | 0.00 | 0.00 | 0.00 | 72 | 1008.5 |
| 20260508170910 | 46 | 38 | 5.0 | 9.0 | 0.00 | 0.00 | 0.00 | 72 | 1008.5 |
| 20260508170412 | 46 | 52 | 6.0 | 12.0 | 0.00 | 0.00 | 0.00 | 73 | 1008.5 |
| 20260508165411 | 46 | 48 | 5.0 | 9.0 | 0.00 | 0.00 | 0.00 | 73 | 1008.7 |
| 20260508164912 | 46 | 70 | 3.0 | 8.0 | 0.00 | 0.00 | 0.00 | 73 | 1008.8 |
| 20260508164412 | 46 | 54 | 5.0 | 10.0 | 0.00 | 0.00 | 0.00 | 74 | 1008.8 |
| 20260508163912 | 45 | 75 | 4.0 | 9.0 | 0.00 | 0.00 | 0.00 | 73 | 1008.9 |
| 20260508163413 | 46 | 56 | 6.0 | 9.0 | 0.00 | 0.00 | 0.00 | 71 | 1008.9 |
| 20260508162911 | 46 | 56 | 3.0 | 10.0 | 0.00 | 0.00 | 0.00 | 74 | 1008.9 |
| 20260508162412 | 46 | 73 | 4.0 | 9.0 | 0.00 | 0.00 | 0.00 | 75 | 1009.0 |
| 20260508161910 | 45 | 96 | 5.0 | 9.0 | 0.00 | 0.00 | 0.00 | 75 | 1009.0 |
| 20260508161414 | 45 | 61 | 2.0 | 7.0 | 0.00 | 0.00 | 0.00 | 77 | 1009.0 |
| 20260508160912 | 45 | 58 | 5.0 | 9.0 | 0.00 | 0.00 | 0.00 | 76 | 1009.0 |
| 20260508160412 | 45 | 65 | 5.0 | 8.0 | 0.00 | 0.00 | 0.00 | 76 | 1009.0 |
| 20260508155912 | 46 | 85 | 4.0 | 6.0 | 0.00 | 0.00 | 0.00 | 77 | 1009.0 |
| 20260508155411 | 46 | 51 | 3.0 | 6.0 | 0.00 | 0.00 | 0.00 | 76 | 1009.0 |
| 20260508154911 | 46 | 67 | 3.0 | 7.0 | 0.00 | 0.00 | 0.00 | 75 | 1009.0 |
| 20260508154411 | 46 | 54 | 3.0 | 7.0 | 0.00 | 0.00 | 0.00 | 74 | 1009.0 |
| 20260508153910 | 46 | 40 | 5.0 | 7.0 | 0.00 | 0.00 | 0.00 | 75 | 1009.1 |
| 20260508153413 | 46 | 23 | 3.0 | 5.0 | 0.00 | 0.00 | 0.00 | 75 | 1009.0 |
| 20260508152912 | 46 | 40 | 3.0 | 5.0 | 0.00 | 0.00 | 0.00 | 75 | 1009.2 |
| 20260508151412 | 46 | 52 | 2.0 | 3.0 | 0.00 | 0.00 | 0.00 | 75 | 1009.2 |
| 20260508150913 | 45 | 48 | 3.0 | 3.0 | 0.00 | 0.00 | 0.00 | 75 | 1009.2 |
| 20260508150413 | 45 | 72 | 3.0 | 5.0 | 0.00 | 0.00 | 0.00 | 74 | 1009.2 |
| 20260508145911 | 46 | 27 | 2.0 | 5.0 | 0.00 | 0.00 | 0.00 | 75 | 1009.3 |
| 20260508145410 | 46 | 47 | 2.0 | 3.0 | 0.00 | 0.00 | 0.00 | 75 | 1009.3 |
| 20260508144911 | 46 | 63 | 3.0 | 5.0 | 0.00 | 0.00 | 0.00 | 77 | 1009.3 |
| 20260508144411 | 46 | 5 | 2.0 | 3.0 | 0.00 | 0.00 | 0.00 | 77 | 1009.3 |
| 20260508143415 | 46 | 47 | 2.0 | 3.0 | 0.00 | 0.00 | 0.00 | 78 | 1009.3 |
| 20260508142911 | 46 | 7 | 2.0 | 3.0 | 0.00 | 0.00 | 0.00 | 78 | 1009.4 |
| 20260508142412 | 45 | 37 | 2.0 | 3.0 | 0.00 | 0.00 | 0.00 | 78 | 1009.4 |
| 20260508141912 | 45 | 357 | 3.0 | 5.0 | 0.00 | 0.00 | 0.00 | 77 | 1009.4 |
| 20260508141412 | 45 | 11 | 2.0 | 3.0 | 0.00 | 0.00 | 0.00 | 80 | 1009.5 |
| 20260508140911 | 45 | 8 | 2.0 | 3.0 | 0.00 | 0.00 | 0.00 | 79 | 1009.5 |
| 20260508140411 | 45 | 353 | 3.0 | 5.0 | 0.00 | 0.00 | 0.00 | 76 | 1009.5 |
| 20260508135912 | 45 | 0 | 3.0 | 6.0 | 0.00 | 0.00 | 0.00 | 75 | 1009.5 |
| 20260508135412 | 45 | 17 | 2.0 | 3.0 | 0.00 | 0.00 | 0.00 | 78 | 1009.5 |
| 20260508134911 | 44 | 12 | 3.0 | 7.0 | 0.00 | 0.00 | 0.00 | 78 | 1009.5 |
| 20260508133911 | 44 | 338 | 2.0 | 5.0 | 0.00 | 0.00 | 0.00 | 78 | 1009.7 |
| 20260508133411 | 44 | 308 | 1.0 | 5.0 | 0.00 | 0.00 | 0.00 | 78 | 1009.7 |
| 20260508132912 | 44 | 5 | 2.0 | 5.0 | 0.00 | 0.00 | 0.00 | 77 | 1009.7 |
| 20260508132412 | 44 | 1 | 2.0 | 3.0 | 0.00 | 0.00 | 0.00 | 76 | 1009.8 |
| 20260508131912 | 44 | 329 | 2.0 | 5.0 | 0.00 | 0.00 | 0.00 | 74 | 1009.8 |
| 20260508130412 | 43 | 324 | 2.0 | 6.0 | 0.00 | 0.00 | 0.00 | 75 | 1009.8 |
| 20260508125911 | 43 | 262 | 1.0 | 3.0 | 0.00 | 0.00 | 0.00 | 75 | 1009.8 |
| 20260508125412 | 43 | 356 | 2.0 | 3.0 | 0.00 | 0.00 | 0.00 | 75 | 1009.9 |
| 20260508124413 | 42 | 323 | 2.0 | 6.0 | 0.00 | 0.00 | 0.00 | 78 | 1009.9 |
| 20260508123910 | 42 | 253 | 2.0 | 6.0 | 0.00 | 0.00 | 0.00 | 78 | 1009.9 |
| 20260508123411 | 42 | 307 | 2.0 | 5.0 | 0.00 | 0.00 | 0.00 | 78 | 1009.8 |
| 20260508122412 | 41 | 238 | 2.0 | 3.0 | 0.00 | 0.00 | 0.00 | 80 | 1009.8 |
| 20260508121911 | 41 | 210 | 3.0 | 6.0 | 0.00 | 0.00 | 0.00 | 80 | 1009.8 |
| 20260508121412 | 40 | 204 | 2.0 | 5.0 | 0.00 | 0.00 | 0.00 | 82 | 1009.8 |
| 20260508120912 | 40 | 262 | 3.0 | 7.0 | 0.00 | 0.00 | 0.00 | 83 | 1009.8 |
| 20260508120411 | 39 | 223 | 2.0 | 5.0 | 0.00 | 0.00 | 0.00 | 85 | 1009.9 |
| 20260508115912 | 39 | 223 | 2.0 | 7.0 | 0.00 | 0.00 | 0.00 | 87 | 1009.9 |
| 20260508115412 | 38 | 222 | 1.0 | 5.0 | 0.00 | 0.00 | 0.00 | 88 | 1009.9 |
| 20260508114912 | 37 | 233 | 2.0 | 6.0 | 0.00 | 0.00 | 0.00 | 89 | 1009.8 |
| 20260508113912 | 36 | 201 | 3.0 | 9.0 | 0.00 | 0.00 | 0.00 | 91 | 1009.9 |
| 20260508113412 | 36 | 206 | 2.0 | 5.0 | 0.00 | 0.00 | 0.00 | 91 | 1010.0 |
| 20260508112912 | 35 | 227 | 3.0 | 6.0 | 0.00 | 0.00 | 0.00 | 92 | 1009.8 |
| 20260508112413 | 35 | 217 | 2.0 | 3.0 | 0.00 | 0.00 | 0.00 | 92 | 1009.8 |
| 20260508111912 | 34 | 185 | 2.0 | 5.0 | 0.00 | 0.00 | 0.00 | 93 | 1009.8 |
| 20260508111412 | 34 | 222 | 2.0 | 5.0 | 0.00 | 0.00 | 0.00 | 93 | 1009.8 |
| 20260508110912 | 33 | 184 | 2.0 | 3.0 | 0.00 | 0.00 | 0.00 | 94 | 1009.8 |
| 20260508110412 | 32 | 182 | 2.0 | 3.0 | 0.00 | 0.00 | 0.00 | 93 | 1009.8 |
| 20260508105912 | 32 | 199 | 2.0 | 3.0 | 0.00 | 0.00 | 0.00 | 93 | 1009.8 |
| 20260508105412 | 31 | 184 | 1.0 | 3.0 | 0.00 | 0.00 | 0.00 | 92 | 1009.7 |
| 20260508104911 | 31 | 181 | 2.0 | 6.0 | 0.00 | 0.00 | 0.00 | 92 | 1009.6 |
| 20260508104413 | 31 | 187 | 3.0 | 5.0 | 0.00 | 0.00 | 0.00 | 91 | 1009.7 |
| 20260508103912 | 31 | 169 | 2.0 | 3.0 | 0.00 | 0.00 | 0.00 | 91 | 1009.7 |
| 20260508103412 | 31 | 193 | 2.0 | 3.0 | 0.00 | 0.00 | 0.00 | 91 | 1009.6 |
| 20260508102910 | 31 | 176 | 2.0 | 3.0 | 0.00 | 0.00 | 0.00 | 91 | 1009.7 |
| 20260508102412 | 31 | 178 | 2.0 | 3.0 | 0.00 | 0.00 | 0.00 | 91 | 1009.7 |
| 20260508101912 | 31 | 181 | 2.0 | 3.0 | 0.00 | 0.00 | 0.00 | 91 | 1009.7 |
| 20260508101412 | 31 | 174 | 2.0 | 3.0 | 0.00 | 0.00 | 0.00 | 91 | 1009.7 |
| 20260508100912 | 31 | 175 | 2.0 | 3.0 | 0.00 | 0.00 | 0.00 | 90 | 1009.6 |
| 20260508095911 | 31 | 173 | 2.0 | 3.0 | 0.00 | 0.00 | 0.00 | 91 | 1009.6 |
| 20260508095412 | 31 | 176 | 2.0 | 3.0 | 0.00 | 0.00 | 0.00 | 90 | 1009.6 |
| 20260508094912 | 31 | 187 | 2.0 | 3.0 | 0.00 | 0.00 | 0.00 | 90 | 1009.6 |
| 20260508094411 | 31 | 182 | 2.0 | 3.0 | 0.00 | 0.00 | 0.00 | 90 | 1009.6 |
| 20260508093911 | 31 | 184 | 2.0 | 3.0 | 0.00 | 0.00 | 0.00 | 89 | 1009.7 |
| 20260508093410 | 31 | 176 | 2.0 | 3.0 | 0.00 | 0.00 | 0.00 | 89 | 1009.8 |
| 20260508092910 | 31 | 184 | 2.0 | 3.0 | 0.00 | 0.00 | 0.00 | 89 | 1009.7 |
| 20260508092412 | 31 | 180 | 3.0 | 3.0 | 0.00 | 0.00 | 0.00 | 89 | 1009.7 |
| 20260508091412 | 32 | 169 | 2.0 | 3.0 | 0.00 | 0.00 | 0.00 | 88 | 1009.9 |
| 20260508090910 | 32 | 187 | 2.0 | 5.0 | 0.00 | 0.00 | 0.00 | 88 | 1009.9 |
| 20260508090412 | 32 | 183 | 1.0 | 2.0 | 0.00 | 0.00 | 0.00 | 88 | 1009.9 |
| 20260508085911 | 32 | 187 | 0.0 | 2.0 | 0.00 | 0.00 | 0.00 | 88 | 1010.0 |
| 20260508085410 | 32 | 164 | 1.0 | 3.0 | 0.00 | 0.00 | 0.00 | 88 | 1010.0 |
| 20260508083910 | 32 | 175 | 1.0 | 3.0 | 0.00 | 0.00 | 0.00 | 89 | 1010.0 |
| 20260508083414 | 32 | 181 | 1.0 | 3.0 | 0.00 | 0.00 | 0.00 | 90 | 1009.9 |
| 20260508082412 | 32 | 203 | 1.0 | 3.0 | 0.00 | 0.00 | 0.00 | 90 | 1009.9 |
| 20260508081411 | 32 | 166 | 2.0 | 3.0 | 0.00 | 0.00 | 0.00 | 91 | 1010.0 |
| 20260508080912 | 31 | 188 | 2.0 | 3.0 | 0.00 | 0.00 | 0.00 | 91 | 1010.0 |
| 20260508080410 | 31 | 185 | 3.0 | 5.0 | 0.00 | 0.00 | 0.00 | 90 | 1010.0 |
| 20260508075910 | 31 | 190 | 2.0 | 3.0 | 0.00 | 0.00 | 0.00 | 90 | 1009.9 |
| 20260508075410 | 31 | 172 | 2.0 | 5.0 | 0.00 | 0.00 | 0.00 | 90 | 1009.9 |